AU298 Weather Reports


time (UTC)temp
C
wind
direction
speed
KPH
gust
KPH
rain 1hr
cm
rain 24hr
cm
rain mn
cm
humidity
%
barometer
mb
20260505075512 0 281 6.4 1.6 0.00 0.56 0.00 80 1005.1
20260505075012 0 290 11.3 1.6 0.00 0.56 0.00 81 1005.1
20260505074011 0 271 4.8 3.2 0.00 0.56 0.00 79 1005.1
20260505072511 0 274 17.7 3.2 0.00 0.56 0.00 78 1005.0
20260505071511 0 328 14.5 3.2 0.00 0.56 0.00 78 1005.0
20260505071011 0 282 14.5 3.2 0.00 0.56 0.00 78 1005.0
20260505070512 0 302 12.9 1.6 0.00 0.56 0.00 80 1004.9
20260505065512 0 307 8.0 1.6 0.00 0.56 0.00 80 1005.0
20260505065011 0 323 6.4 1.6 0.00 0.56 0.00 80 1005.0
20260505064512 0 326 9.7 1.6 0.00 0.56 0.00 79 1005.0
20260505063511 0 340 3.2 1.6 0.00 0.56 0.00 79 1005.0
20260505063011 0 328 4.8 1.6 0.00 0.56 0.00 79 1005.0
20260505062511 0 336 17.7 1.6 0.00 0.56 0.00 80 1005.1
20260505062011 0 302 8.0 1.6 0.00 0.56 0.00 80 1005.0
20260505061511 0 309 9.7 3.2 0.00 0.56 0.00 79 1005.0
20260505060011 0 290 6.4 1.6 0.00 0.56 0.00 80 1005.0
20260505055511 0 309 16.1 1.6 0.00 0.56 0.00 80 1004.9
20260505055011 0 336 14.5 1.6 0.00 0.56 0.00 79 1004.9
20260505054511 0 264 9.7 1.6 0.00 0.56 0.00 80 1004.9
20260505054012 0 326 8.0 1.6 0.00 0.56 0.00 79 1004.8
20260505053511 0 307 12.9 1.6 0.00 0.56 0.00 79 1004.8
20260505053011 0 232 6.4 1.6 0.00 0.56 0.00 80 1004.8
20260505052511 0 324 11.3 1.6 0.00 0.56 0.00 79 1004.6
20260505052012 0 289 8.0 1.6 0.00 0.56 0.00 80 1004.7
20260505051511 0 320 16.1 1.6 0.00 0.56 0.00 80 1004.7
20260505051012 0 313 6.4 1.6 0.00 0.56 0.00 80 1004.6
20260505050511 0 323 12.9 1.6 0.00 0.56 0.00 79 1004.5
20260505041512 1 257 3.2 1.6 0.03 0.56 0.56 84 1004.0
20260505041011 1 340 1.6 1.6 0.03 0.56 0.56 84 1004.0
20260505040012 1 302 9.7 1.6 0.03 0.56 0.56 87 1003.9
20260505035011 1 301 3.2 1.6 0.05 0.56 0.56 87 1003.9
20260505034511 1 290 4.8 1.6 0.05 0.56 0.56 88 1004.0
20260505034011 1 321 4.8 1.6 0.05 0.56 0.56 88 1004.0
20260505033511 1 302 3.2 1.6 0.05 0.56 0.56 88 1004.0
20260505033011 1 333 4.8 1.6 0.05 0.53 0.53 88 1003.9
20260505032511 1 321 1.6 0.0 0.05 0.53 0.53 88 1003.9
20260505031011 1 310 4.8 1.6 0.05 0.53 0.53 87 1003.9
20260505030511 1 277 6.4 1.6 0.05 0.53 0.53 87 1003.9
20260505030012 1 304 3.2 1.6 0.05 0.53 0.53 87 1003.8
20260505025511 1 335 4.8 1.6 0.03 0.51 0.51 88 1003.8
20260505025011 1 304 3.2 1.6 0.03 0.51 0.51 88 1003.7
20260505024012 1 313 4.8 1.6 0.03 0.51 0.51 88 1003.5
20260505023511 1 318 1.6 1.6 0.03 0.51 0.51 88 1003.5
20260505023011 1 319 6.4 1.6 0.00 0.48 0.48 88 1003.4
20260505022511 1 329 6.4 1.6 0.00 0.48 0.48 88 1003.3
20260505022011 1 305 3.2 1.6 0.00 0.48 0.48 88 1003.2
20260505021511 1 306 4.8 1.6 0.00 0.48 0.48 88 1003.2
20260505021012 1 292 8.0 1.6 0.03 0.48 0.48 87 1003.1
20260505020511 1 315 9.7 1.6 0.03 0.48 0.48 87 1003.0
20260505020011 1 323 8.0 1.6 0.05 0.48 0.48 87 1002.9
20260505015511 1 316 6.4 1.6 0.05 0.48 0.48 87 1002.8
20260505014512 1 350 6.4 1.6 0.05 0.48 0.48 87 1002.7
20260505014011 1 323 9.7 1.6 0.05 0.48 0.48 87 1002.7
20260505013511 1 326 6.4 1.6 0.05 0.48 0.48 86 1002.6
20260505013011 1 342 8.0 1.6 0.05 0.48 0.48 86 1002.3
20260505012512 1 348 8.0 1.6 0.05 0.48 0.48 86 1003.3
20260505012011 1 306 8.0 1.6 0.05 0.48 0.48 86 1003.3
20260505011511 1 347 6.4 1.6 0.05 0.48 0.48 86 1003.2
20260505011012 1 319 6.4 1.6 0.03 0.46 0.46 86 1003.1
20260505010511 1 343 9.7 3.2 0.03 0.46 0.46 85 1003.1
20260505005512 2 279 16.1 3.2 0.00 0.43 0.43 81 1003.0
20260505005011 2 335 8.0 1.6 0.00 0.43 0.43 81 1002.8
20260505004511 2 259 1.6 1.6 0.00 0.43 0.43 82 1002.7
20260505004011 2 304 14.5 1.6 0.00 0.43 0.43 83 1002.5
20260505003511 2 295 6.4 3.2 0.00 0.43 0.43 83 1002.5
20260505003011 2 311 11.3 3.2 0.00 0.43 0.43 82 1002.4
20260505002011 2 338 6.4 3.2 0.00 0.43 0.43 79 1002.5
20260505001011 3 263 8.0 3.2 0.03 0.43 0.43 79 1002.4
20260505000511 3 323 14.5 3.2 0.03 0.43 0.43 78 1002.2
20260505000011 3 297 9.7 3.2 0.03 0.43 0.43 80 1002.2
20260504235511 3 278 6.4 3.2 0.03 0.43 0.43 80 1002.2
20260504235012 3 235 12.9 1.6 0.03 0.43 0.43 82 1002.0
20260504234511 2 315 4.8 1.6 0.03 0.43 0.43 83 1002.0
20260504233512 2 276 3.2 1.6 0.03 0.43 0.43 86 1001.9
20260504233012 2 299 6.4 1.6 0.05 0.43 0.43 86 1002.0
20260504232011 1 283 11.3 4.8 0.05 0.43 0.43 86 1002.0
20260504231511 1 297 16.1 4.8 0.03 0.41 0.41 84 1001.9
20260504231011 3 309 14.5 3.2 0.03 0.41 0.41 74 1001.8
20260504230511 3 229 9.7 3.2 0.03 0.41 0.41 74 1001.5
20260504230011 3 292 14.5 3.2 0.03 0.41 0.41 76 1001.4
20260504225011 3 316 9.7 3.2 0.03 0.41 0.41 77 1001.4
20260504224511 3 330 11.3 3.2 0.03 0.41 0.41 78 1001.4
20260504224012 3 277 14.5 3.2 0.03 0.41 0.41 80 1001.4
20260504223011 3 279 9.7 3.2 0.00 0.38 0.38 76 1001.3
20260504222511 3 276 19.3 3.2 0.00 0.38 0.38 76 1001.0
20260504222011 3 302 20.9 3.2 0.00 0.38 0.38 76 1000.9
20260504221511 3 303 12.9 3.2 0.03 0.38 0.38 76 1000.9
20260504221011 3 295 20.9 3.2 0.03 0.38 0.38 74 1000.8
20260504220512 4 282 19.3 3.2 0.03 0.38 0.38 74 1000.6
20260504215511 4 328 14.5 4.8 0.03 0.38 0.38 73 1000.3
20260504215011 5 238 25.7 3.2 0.03 0.38 0.38 72 1000.3
20260504214511 5 258 17.7 3.2 0.03 0.38 0.38 71 1000.2
20260504214011 5 300 8.0 3.2 0.03 0.38 0.38 72 1000.1
20260504213511 5 274 6.4 3.2 0.03 0.38 0.38 73 1000.1
20260504213012 5 266 8.0 3.2 0.03 0.38 0.38 75 1000.1
20260504212511 4 321 9.7 3.2 0.03 0.38 0.38 75 1000.0
20260504212011 3 236 19.3 3.2 0.03 0.38 0.38 78 1000.1
20260504211511 5 245 32.2 3.2 0.00 0.36 0.36 71 999.9
20260504211011 6 275 3.2 3.2 0.00 0.36 0.36 66 999.7
20260504205511 5 283 11.3 3.2 0.00 0.36 0.36 72 999.6
20260504205011 5 295 20.9 4.8 0.00 0.36 0.36 73 999.6
20260504203511 5 18 9.7 3.2 0.00 0.36 0.36 68 999.2
20260504203011 6 333 20.9 3.2 0.00 0.36 0.36 63 999.2
20260504202511 6 252 19.3 3.2 0.00 0.36 0.36 64 999.1
20260504202011 5 327 11.3 3.2 0.00 0.36 0.36 65 999.1
20260504201511 5 292 19.3 4.8 0.00 0.36 0.36 66 999.0
20260504201011 5 44 11.3 3.2 0.00 0.36 0.36 67 998.9
20260504200011 6 274 8.0 3.2 0.00 0.36 0.36 63 998.7
20260504195011 6 335 12.9 3.2 0.00 0.36 0.36 67 998.6
20260504194511 6 260 8.0 3.2 0.00 0.36 0.36 67 998.5
20260504194011 6 282 27.4 4.8 0.00 0.36 0.36 64 998.4
20260504193511 6 338 22.5 4.8 0.00 0.36 0.36 63 998.2
20260504193011 6 20 29.0 4.8 0.00 0.36 0.36 63 998.2
20260504192511 6 330 14.5 3.2 0.00 0.36 0.36 64 998.1
20260504192011 6 272 17.7 3.2 0.00 0.36 0.36 65 998.1
20260504191511 6 297 29.0 3.2 0.00 0.36 0.36 69 998.2
20260504190512 5 284 12.9 3.2 0.00 0.36 0.36 79 998.1
20260504190011 4 319 19.3 3.2 0.00 0.36 0.36 79 998.0
20260504185510 5 307 14.5 3.2 0.00 0.36 0.36 78 997.9
20260504185011 5 265 12.9 3.2 0.00 0.36 0.36 76 997.8
20260504184512 4 294 25.7 3.2 0.00 0.36 0.36 76 997.8
20260504184011 5 311 25.7 3.2 0.00 0.36 0.36 73 997.8
20260504183511 5 309 16.1 3.2 0.00 0.36 0.36 71 997.6
20260504183011 5 311 9.7 3.2 0.00 0.36 0.36 74 997.5
20260504182510 5 310 17.7 3.2 0.00 0.36 0.36 78 997.5
20260504182011 4 20 20.9 3.2 0.00 0.36 0.36 78 997.3
20260504181511 5 224 17.7 3.2 0.00 0.36 0.36 74 997.1
20260504181012 5 269 11.3 3.2 0.00 0.36 0.36 74 997.0
20260504180511 5 275 25.7 3.2 0.00 0.36 0.36 74 997.0
20260504180011 5 264 8.0 3.2 0.00 0.36 0.36 76 996.8
20260504175511 5 310 16.1 3.2 0.00 0.36 0.36 76 996.9
20260504175011 5 265 17.7 3.2 0.00 0.36 0.36 73 996.7
20260504174510 5 301 4.8 3.2 0.00 0.36 0.36 73 996.5
20260504174011 5 265 14.5 4.8 0.00 0.36 0.36 73 996.4
20260504173511 5 292 32.2 4.8 0.00 0.36 0.36 74 996.6
20260504173011 6 329 25.7 4.8 0.00 0.36 0.36 72 996.4
20260504172511 6 276 6.4 4.8 0.00 0.36 0.36 73 996.3
20260504172012 6 294 16.1 4.8 0.00 0.36 0.36 71 996.3
20260504171511 5 300 11.3 3.2 0.03 0.36 0.36 72 996.3
20260504170511 5 324 22.5 3.2 0.03 0.36 0.36 78 996.4
20260504151011 5 299 20.9 3.2 0.00 0.33 0.33 80 994.6
20260504150511 5 344 11.3 3.2 0.00 0.33 0.33 82 994.5
20260504141011 6 335 4.8 1.6 0.00 0.33 0.33 83 993.3
20260504140511 6 293 14.5 3.2 0.00 0.33 0.33 83 993.3
20260504130511 6 300 9.7 1.6 0.00 0.33 0.33 86 992.7
20260504110510 6 313 14.5 1.6 0.33 0.33 0.33 87 992.1
20260504081510 13 179 6.4 3.2 0.00 0.00 0.00 44 990.4
20260504081010 13 240 9.7 1.6 0.00 0.00 0.00 44 990.7
20260504080510 13 240 1.6 3.2 0.00 0.00 0.00 44 990.9